This is the latest recevied weather packets stored in our database for station/object K1WJY. If no packets are shown the sender has not sent any weather packets the latest 10 day(s).
| Time | Temp. | Humidity | Pressure | Rain* | Wind** | Luminosity | Snow |
|---|---|---|---|---|---|---|---|
| 1787694879 | 24.44° C | 68% | 1013.5 hPa | 0 mm | - | 105 W/m² | - |
| 1787694575 | 24.44° C | 68% | 1013.7 hPa | 0 mm | - | 81 W/m² | - |
| 1787694275 | 25° C | 67% | 1013.5 hPa | 0 mm | - | 70 W/m² | - |
| 1787693970 | 25° C | 67% | 1013.5 hPa | 0 mm | - | 122 W/m² | - |
| 1787693666 | 25° C | 67% | 1013.5 hPa | 0 mm | - | 143 W/m² | - |
| 1787693362 | 25° C | 67% | 1013.4 hPa | 0 mm | - | 59 W/m² | - |
| 1787693058 | 25° C | 67% | 1013.6 hPa | 0 mm | - | 94 W/m² | - |
| 1787692754 | 25° C | 67% | 1013.6 hPa | 0 mm | - | 201 W/m² | - |
| 1787692449 | 25° C | 66% | 1013.7 hPa | 0 mm | - | 129 W/m² | - |
| 1787692148 | 25° C | 65% | 1013.6 hPa | 0 mm | - | 168 W/m² | - |
| 1787691848 | 25° C | 64% | 1013.5 hPa | 0 mm | - | 164 W/m² | - |
| 1787691546 | 25° C | 64% | 1013.6 hPa | 0 mm | - | 205 W/m² | - |
| 1787691246 | 25.56° C | 63% | 1013.5 hPa | 0 mm | - | 275 W/m² | - |
| 1787690941 | 25° C | 62% | 1013.7 hPa | 0 mm | - | 280 W/m² | - |
| 1787690636 | 25.56° C | 63% | 1013.7 hPa | 0 mm | - | 301 W/m² | - |
| 1787690336 | 25.56° C | 61% | 1013.8 hPa | 0 mm | - | 320 W/m² | - |
| 1787690033 | 25.56° C | 59% | 1013.8 hPa | 0 mm | - | 333 W/m² | - |
| 1787689728 | 26.11° C | 59% | 1013.8 hPa | 0 mm | - | 345 W/m² | - |
| 1787689424 | 26.11° C | 60% | 1013.8 hPa | 0 mm | - | 359 W/m² | - |
| 1787689123 | 26.11° C | 58% | 1013.7 hPa | 0 mm | - | 377 W/m² | - |
| 1787688820 | 26.11° C | 57% | 1013.7 hPa | 0 mm | - | 390 W/m² | - |
| 1787688510 | 26.11° C | 59% | 1013.7 hPa | 0 mm | - | 404 W/m² | - |
| 1787688210 | 26.11° C | 58% | 1013.8 hPa | 0 mm | - | 416 W/m² | - |
| 1787687905 | 26.11° C | 56% | 1013.7 hPa | 0 mm | - | 434 W/m² | - |
| 1787687606 | 26.11° C | 56% | 1013.8 hPa | 0 mm | - | 439 W/m² | - |
* Rain latest hour (hover to see other rain measurements)
** Current wind speed in m/s (hover to see current wind gust speed)